Year,Month,Day,Hour,Minute,Value (Times are PST for temperature in C)
2018,05,22,00,00,13.60
2018,05,22,00,01,13.60
2018,05,22,00,02,13.60
2018,05,22,00,03,13.60
2018,05,22,00,04,13.60
2018,05,22,00,05,13.60
2018,05,22,00,06,13.60
2018,05,22,00,07,13.40
2018,05,22,00,08,13.40
2018,05,22,00,09,13.30
2018,05,22,00,10,13.30
2018,05,22,00,11,13.30
2018,05,22,00,12,13.30
2018,05,22,00,13,13.30
2018,05,22,00,14,13.30
2018,05,22,00,15,13.20
2018,05,22,00,16,13.20
2018,05,22,00,17,13.20
2018,05,22,00,18,13.20
2018,05,22,00,19,13.10
2018,05,22,00,20,13.10
2018,05,22,00,21,13.10
2018,05,22,00,22,13.10
2018,05,22,00,23,13.10
2018,05,22,00,24,13.10
2018,05,22,00,25,13.00
2018,05,22,00,26,13.00
2018,05,22,00,27,13.00
2018,05,22,00,28,13.00
2018,05,22,00,29,13.00
2018,05,22,00,30,12.90
2018,05,22,00,31,12.90
2018,05,22,00,32,12.90
2018,05,22,00,33,12.90
2018,05,22,00,34,12.90
2018,05,22,00,35,12.90
2018,05,22,00,36,12.90
2018,05,22,00,37,12.80
2018,05,22,00,38,12.80
2018,05,22,00,39,12.80
2018,05,22,00,40,12.80
2018,05,22,00,41,12.80
2018,05,22,00,42,12.80
2018,05,22,00,43,12.80
2018,05,22,00,44,12.80
2018,05,22,00,45,12.80
2018,05,22,00,46,12.80
2018,05,22,00,47,12.70
2018,05,22,00,48,12.70
2018,05,22,00,49,12.70
2018,05,22,00,50,12.70
2018,05,22,00,51,12.70
2018,05,22,00,52,12.70
2018,05,22,00,53,12.70
2018,05,22,00,54,12.70
2018,05,22,00,55,12.60
2018,05,22,00,56,12.60
2018,05,22,00,57,12.60
2018,05,22,00,58,12.60
2018,05,22,00,59,12.60
2018,05,22,01,00,12.60
2018,05,22,01,01,12.50
2018,05,22,01,02,12.50
2018,05,22,01,03,12.50
2018,05,22,01,04,12.40
2018,05,22,01,05,12.40
2018,05,22,01,06,12.40
2018,05,22,01,07,12.40
2018,05,22,01,08,12.40
2018,05,22,01,09,12.30
2018,05,22,01,10,12.30
2018,05,22,01,11,12.30
2018,05,22,01,12,12.30
2018,05,22,01,13,12.30
2018,05,22,01,14,12.30
2018,05,22,01,15,12.30
2018,05,22,01,16,12.30
2018,05,22,01,17,12.30
2018,05,22,01,18,12.30
2018,05,22,01,19,12.30
2018,05,22,01,20,12.30
2018,05,22,01,21,12.30
2018,05,22,01,22,12.30
2018,05,22,01,23,12.30
2018,05,22,01,24,12.20
2018,05,22,01,25,12.20
2018,05,22,01,26,12.20
2018,05,22,01,27,12.20
2018,05,22,01,28,12.20
2018,05,22,01,29,12.20
2018,05,22,01,30,12.20
2018,05,22,01,31,12.20
2018,05,22,01,32,12.20
2018,05,22,01,33,12.10
2018,05,22,01,34,12.10
2018,05,22,01,35,12.10
2018,05,22,01,36,12.10
2018,05,22,01,37,12.10
2018,05,22,01,38,12.10
2018,05,22,01,39,12.00
2018,05,22,01,40,12.00
2018,05,22,01,41,12.00
2018,05,22,01,42,12.00
2018,05,22,01,43,12.00
2018,05,22,01,44,12.00
2018,05,22,01,45,11.90
2018,05,22,01,46,11.90
2018,05,22,01,47,11.90
2018,05,22,01,48,11.90
2018,05,22,01,49,11.90
2018,05,22,01,50,11.90
2018,05,22,01,51,11.90
2018,05,22,01,52,11.90
2018,05,22,01,53,11.90
2018,05,22,01,54,11.80
2018,05,22,01,55,11.80
2018,05,22,01,56,11.80
2018,05,22,01,57,11.80
2018,05,22,01,58,11.80
2018,05,22,01,59,11.80
2018,05,22,02,00,11.80
2018,05,22,02,01,11.80
2018,05,22,02,02,11.80
2018,05,22,02,03,11.70
2018,05,22,02,04,11.70
2018,05,22,02,05,11.70
2018,05,22,02,06,11.70
2018,05,22,02,07,11.70
2018,05,22,02,08,11.70
2018,05,22,02,09,11.70
2018,05,22,02,10,11.70
2018,05,22,02,11,11.70
2018,05,22,02,12,11.60
2018,05,22,02,13,11.60
2018,05,22,02,14,11.60
2018,05,22,02,15,11.60
2018,05,22,02,16,11.60
2018,05,22,02,17,11.50
2018,05,22,02,18,11.50
2018,05,22,02,19,11.50
2018,05,22,02,20,11.40
2018,05,22,02,21,11.40
2018,05,22,02,22,11.40
2018,05,22,02,23,11.40
2018,05,22,02,24,11.40
2018,05,22,02,25,11.40
2018,05,22,02,26,11.40
2018,05,22,02,27,11.40
2018,05,22,02,28,11.30
2018,05,22,02,29,11.30
2018,05,22,02,30,11.30
2018,05,22,02,31,11.30
2018,05,22,02,32,11.30
2018,05,22,02,33,11.30
2018,05,22,02,34,11.30
2018,05,22,02,35,11.30
2018,05,22,02,36,11.30
2018,05,22,02,37,11.30
2018,05,22,02,38,11.30
2018,05,22,02,39,11.30
2018,05,22,02,40,11.30
2018,05,22,02,41,11.30
2018,05,22,02,42,11.30
2018,05,22,02,43,11.30
2018,05,22,02,44,11.30
2018,05,22,02,45,11.30
2018,05,22,02,46,11.20
2018,05,22,02,47,11.20
2018,05,22,02,48,11.20
2018,05,22,02,49,11.20
2018,05,22,02,50,11.20
2018,05,22,02,51,11.20
2018,05,22,02,52,11.20
2018,05,22,02,53,11.20
2018,05,22,02,54,11.20
2018,05,22,02,55,11.20
2018,05,22,02,56,11.20
2018,05,22,02,57,11.20
2018,05,22,02,58,11.20
2018,05,22,02,59,11.20
2018,05,22,03,00,11.10
2018,05,22,03,01,11.10
2018,05,22,03,02,11.10
2018,05,22,03,03,11.10
2018,05,22,03,04,11.10
2018,05,22,03,05,11.10
2018,05,22,03,06,11.10
2018,05,22,03,07,11.10
2018,05,22,03,08,11.10
2018,05,22,03,09,11.10
2018,05,22,03,10,11.10
2018,05,22,03,11,11.10
2018,05,22,03,12,11.10
2018,05,22,03,13,11.10
2018,05,22,03,14,11.00
2018,05,22,03,15,11.00
2018,05,22,03,16,11.00
2018,05,22,03,17,11.00
2018,05,22,03,18,10.90
2018,05,22,03,19,10.90
2018,05,22,03,20,10.90
2018,05,22,03,21,10.90
2018,05,22,03,22,10.90
2018,05,22,03,23,10.90
2018,05,22,03,24,10.90
2018,05,22,03,25,10.90
2018,05,22,03,26,10.90
2018,05,22,03,27,10.90
2018,05,22,03,28,10.90
2018,05,22,03,29,10.90
2018,05,22,03,30,10.90
2018,05,22,03,31,10.90
2018,05,22,03,32,10.90
2018,05,22,03,33,10.90
2018,05,22,03,34,10.80
2018,05,22,03,35,10.80
2018,05,22,03,36,10.80
2018,05,22,03,37,10.80
2018,05,22,03,38,10.80
2018,05,22,03,39,10.80
2018,05,22,03,40,10.80
2018,05,22,03,41,10.80
2018,05,22,03,42,10.80
2018,05,22,03,43,10.80
2018,05,22,03,44,10.80
2018,05,22,03,45,10.80
2018,05,22,03,46,10.80
2018,05,22,03,47,10.80
2018,05,22,03,48,10.80
2018,05,22,03,49,10.80
2018,05,22,03,50,10.80
2018,05,22,03,51,10.80
2018,05,22,03,52,10.80
2018,05,22,03,53,10.80
2018,05,22,03,54,10.80
2018,05,22,03,55,10.80
2018,05,22,03,56,10.70
2018,05,22,03,57,10.70
2018,05,22,03,58,10.70
2018,05,22,03,59,10.70
2018,05,22,04,00,10.70
2018,05,22,04,01,10.70
2018,05,22,04,02,10.70
2018,05,22,04,03,10.70
2018,05,22,04,04,10.70
2018,05,22,04,05,10.70
2018,05,22,04,06,10.70
2018,05,22,04,07,10.70
2018,05,22,04,08,10.60
2018,05,22,04,09,10.60
2018,05,22,04,10,10.60
2018,05,22,04,11,10.60
2018,05,22,04,12,10.60
2018,05,22,04,13,10.60
2018,05,22,04,14,10.60
2018,05,22,04,15,10.60
2018,05,22,04,16,10.60
2018,05,22,04,17,10.60
2018,05,22,04,18,10.50
2018,05,22,04,19,10.50
2018,05,22,04,20,10.50
2018,05,22,04,21,10.50
2018,05,22,04,22,10.50
2018,05,22,04,23,10.50
2018,05,22,04,24,10.50
2018,05,22,04,25,10.50
2018,05,22,04,26,10.50
2018,05,22,04,27,10.40
2018,05,22,04,28,10.40
2018,05,22,04,29,10.40
2018,05,22,04,30,10.40
2018,05,22,04,31,10.40
2018,05,22,04,32,10.40
2018,05,22,04,33,10.40
2018,05,22,04,34,10.30
2018,05,22,04,35,10.30
2018,05,22,04,36,10.30
2018,05,22,04,37,10.30
2018,05,22,04,38,10.30
2018,05,22,04,39,10.30
2018,05,22,04,40,10.30
2018,05,22,04,41,10.30
2018,05,22,04,42,10.30
2018,05,22,04,43,10.30
2018,05,22,04,44,10.30
2018,05,22,04,45,10.30
2018,05,22,04,46,10.30
2018,05,22,04,47,10.30
2018,05,22,04,48,10.30
2018,05,22,04,49,10.30
2018,05,22,04,50,10.30
2018,05,22,04,51,10.30
2018,05,22,04,52,10.30
2018,05,22,04,53,10.30
2018,05,22,04,54,10.30
2018,05,22,04,55,10.20
2018,05,22,04,56,10.20
2018,05,22,04,57,10.20
2018,05,22,04,58,10.20
2018,05,22,04,59,10.20
2018,05,22,05,00,10.20
2018,05,22,05,01,10.20
2018,05,22,05,02,10.20
2018,05,22,05,03,10.20
2018,05,22,05,04,10.20
2018,05,22,05,05,10.20
2018,05,22,05,06,10.20
2018,05,22,05,07,10.20
2018,05,22,05,08,10.20
2018,05,22,05,09,10.20
2018,05,22,05,10,10.20
2018,05,22,05,11,10.20
2018,05,22,05,12,10.20
2018,05,22,05,13,10.20
2018,05,22,05,14,10.10
2018,05,22,05,15,10.10
2018,05,22,05,16,10.10
2018,05,22,05,17,10.10
2018,05,22,05,18,10.10
2018,05,22,05,19,10.10
2018,05,22,05,20,10.10
2018,05,22,05,21,10.10
2018,05,22,05,22,10.10
2018,05,22,05,23,10.10
2018,05,22,05,24,10.10
2018,05,22,05,25,10.10
2018,05,22,05,26,10.10
2018,05,22,05,27,10.00
2018,05,22,05,28,10.00
2018,05,22,05,29,10.00
2018,05,22,05,30,10.00
2018,05,22,05,31,10.00
2018,05,22,05,32,10.00
2018,05,22,05,33,10.00
2018,05,22,05,34,10.00
2018,05,22,05,35,10.00
2018,05,22,05,36,10.10
2018,05,22,05,37,10.10
2018,05,22,05,38,10.10
2018,05,22,05,39,10.10
2018,05,22,05,40,10.10
2018,05,22,05,41,10.10
2018,05,22,05,42,10.10
2018,05,22,05,43,10.10
2018,05,22,05,44,10.10
2018,05,22,05,45,10.10
2018,05,22,05,46,10.20
2018,05,22,05,47,10.20
2018,05,22,05,48,10.20
2018,05,22,05,49,10.20
2018,05,22,05,50,10.20
2018,05,22,05,51,10.20
2018,05,22,05,52,10.20
2018,05,22,05,53,10.20
2018,05,22,05,54,10.20
2018,05,22,05,55,10.20
2018,05,22,05,56,10.20
2018,05,22,05,57,10.20
2018,05,22,05,58,10.20
2018,05,22,05,59,10.20
2018,05,22,06,00,10.30
2018,05,22,06,01,10.30
2018,05,22,06,02,10.30
2018,05,22,06,03,10.30
2018,05,22,06,04,10.30
2018,05,22,06,05,10.30
2018,05,22,06,06,10.30
2018,05,22,06,07,10.40
2018,05,22,06,08,10.40
2018,05,22,06,09,10.40
2018,05,22,06,10,10.40
2018,05,22,06,11,10.40
2018,05,22,06,12,10.50
2018,05,22,06,13,10.50
2018,05,22,06,14,10.60
2018,05,22,06,15,10.60
2018,05,22,06,16,10.60
2018,05,22,06,17,10.60
2018,05,22,06,18,10.60
2018,05,22,06,19,10.60
2018,05,22,06,20,10.70
2018,05,22,06,21,10.70
2018,05,22,06,22,10.70
2018,05,22,06,23,10.70
2018,05,22,06,24,10.80
2018,05,22,06,25,10.80
2018,05,22,06,26,10.80
2018,05,22,06,27,10.90
2018,05,22,06,28,10.90
2018,05,22,06,29,10.90
2018,05,22,06,30,10.90
2018,05,22,06,31,11.00
2018,05,22,06,32,11.00
2018,05,22,06,33,11.00
2018,05,22,06,34,11.10
2018,05,22,06,35,11.10
2018,05,22,06,36,11.10
2018,05,22,06,37,11.20
2018,05,22,06,38,11.20
2018,05,22,06,39,11.20
2018,05,22,06,40,11.30
2018,05,22,06,41,11.30
2018,05,22,06,42,11.40
2018,05,22,06,43,11.40
2018,05,22,06,44,11.40
2018,05,22,06,45,11.50
2018,05,22,06,46,11.60
2018,05,22,06,47,11.60
2018,05,22,06,48,11.70
2018,05,22,06,49,11.70
2018,05,22,06,50,11.70
2018,05,22,06,51,11.80
2018,05,22,06,52,11.80
2018,05,22,06,53,11.90
2018,05,22,06,54,11.90
2018,05,22,06,55,12.00
2018,05,22,06,56,12.00
2018,05,22,06,57,12.10
2018,05,22,06,58,12.10
2018,05,22,06,59,12.20
2018,05,22,07,00,12.20
2018,05,22,07,01,12.30
2018,05,22,07,02,12.30
2018,05,22,07,03,12.40
2018,05,22,07,04,12.50
2018,05,22,07,05,12.50
2018,05,22,07,06,12.60
2018,05,22,07,07,12.70
2018,05,22,07,08,12.70
2018,05,22,07,09,12.80
2018,05,22,07,10,12.80
2018,05,22,07,11,12.90
2018,05,22,07,12,13.00
2018,05,22,07,13,13.10
2018,05,22,07,14,13.10
2018,05,22,07,15,13.20
2018,05,22,07,16,13.30
2018,05,22,07,17,13.30
2018,05,22,07,18,13.40
2018,05,22,07,19,13.50
2018,05,22,07,20,13.60
2018,05,22,07,21,13.60
2018,05,22,07,22,13.70
2018,05,22,07,23,13.70
2018,05,22,07,24,13.80
2018,05,22,07,25,13.90
2018,05,22,07,26,14.00
2018,05,22,07,27,14.00
2018,05,22,07,28,14.10
2018,05,22,07,29,14.10
2018,05,22,07,30,14.20
2018,05,22,07,31,14.20
2018,05,22,07,32,14.30
2018,05,22,07,33,14.40
2018,05,22,07,34,14.50
2018,05,22,07,35,14.60
2018,05,22,07,36,14.60
2018,05,22,07,37,14.60
2018,05,22,07,38,14.70
2018,05,22,07,39,14.80
2018,05,22,07,40,14.80
2018,05,22,07,41,14.90
2018,05,22,07,42,15.00
2018,05,22,07,43,15.10
2018,05,22,07,44,15.10
2018,05,22,07,45,15.20
2018,05,22,07,46,15.30
2018,05,22,07,47,15.40
2018,05,22,07,48,15.60
2018,05,22,07,49,15.70
2018,05,22,07,50,15.80
2018,05,22,07,51,15.90
2018,05,22,07,52,15.90
2018,05,22,07,53,16.00
2018,05,22,07,54,16.10
2018,05,22,07,55,16.10
2018,05,22,07,56,16.20
2018,05,22,07,57,16.30
2018,05,22,07,58,16.30
2018,05,22,07,59,16.30
2018,05,22,08,00,16.30
2018,05,22,08,01,16.30
2018,05,22,08,02,16.40
2018,05,22,08,03,16.40
2018,05,22,08,04,16.40
2018,05,22,08,05,16.50
2018,05,22,08,06,16.50
2018,05,22,08,07,16.60
2018,05,22,08,08,16.60
2018,05,22,08,09,16.60
2018,05,22,08,10,16.60
2018,05,22,08,11,16.60
2018,05,22,08,12,16.50
2018,05,22,08,13,16.50
2018,05,22,08,14,16.50
2018,05,22,08,15,16.40
2018,05,22,08,16,16.40
2018,05,22,08,17,16.40
2018,05,22,08,18,16.40
2018,05,22,08,19,16.40
2018,05,22,08,20,16.40
2018,05,22,08,21,16.40
2018,05,22,08,22,16.40
2018,05,22,08,23,16.40
2018,05,22,08,24,16.40
2018,05,22,08,25,16.40
2018,05,22,08,26,16.50
2018,05,22,08,27,16.50
2018,05,22,08,28,16.60
2018,05,22,08,29,16.60
2018,05,22,08,30,16.60
2018,05,22,08,31,16.60
2018,05,22,08,32,16.70
2018,05,22,08,33,16.70
2018,05,22,08,34,16.70
2018,05,22,08,35,16.70
2018,05,22,08,36,16.70
2018,05,22,08,37,16.60
2018,05,22,08,38,16.60
2018,05,22,08,39,16.60
2018,05,22,08,40,16.70
2018,05,22,08,41,16.70
2018,05,22,08,42,16.80
2018,05,22,08,43,16.80
2018,05,22,08,44,16.90
2018,05,22,08,45,16.90
2018,05,22,08,46,16.90
2018,05,22,08,47,16.90
2018,05,22,08,48,17.00
2018,05,22,08,49,17.00
2018,05,22,08,50,17.00
2018,05,22,08,51,17.00
2018,05,22,08,52,17.10
2018,05,22,08,53,17.10
2018,05,22,08,54,17.00
2018,05,22,08,55,16.90
2018,05,22,08,56,16.90
2018,05,22,08,57,16.80
2018,05,22,08,58,16.90
2018,05,22,08,59,16.90
2018,05,22,09,00,16.90
2018,05,22,09,01,17.00
2018,05,22,09,02,17.10
2018,05,22,09,03,17.20
2018,05,22,09,04,17.30
2018,05,22,09,05,17.40
2018,05,22,09,06,17.40
2018,05,22,09,07,17.50
2018,05,22,09,08,17.50
2018,05,22,09,09,17.60
2018,05,22,09,10,17.60
2018,05,22,09,11,17.60
2018,05,22,09,12,17.70
2018,05,22,09,13,17.70
2018,05,22,09,14,17.80
2018,05,22,09,15,17.90
2018,05,22,09,16,17.90
2018,05,22,09,17,18.00
2018,05,22,09,18,18.10
2018,05,22,09,19,18.20
2018,05,22,09,20,18.20
2018,05,22,09,21,18.30
2018,05,22,09,22,18.30
2018,05,22,09,23,18.30
2018,05,22,09,24,18.20
2018,05,22,09,25,18.20
2018,05,22,09,26,18.20
2018,05,22,09,27,18.30
2018,05,22,09,28,18.30
2018,05,22,09,29,18.30
2018,05,22,09,30,18.30
2018,05,22,09,31,18.20
2018,05,22,09,32,18.10
2018,05,22,09,33,17.90
2018,05,22,09,34,17.80
2018,05,22,09,35,17.70
2018,05,22,09,36,17.70
2018,05,22,09,37,17.70
2018,05,22,09,38,17.80
2018,05,22,09,39,17.80
2018,05,22,09,40,17.90
2018,05,22,09,41,18.00
2018,05,22,09,42,18.00
2018,05,22,09,43,17.90
2018,05,22,09,44,17.80
2018,05,22,09,45,17.70
2018,05,22,09,46,17.60
2018,05,22,09,47,17.60
2018,05,22,09,48,17.70
2018,05,22,09,49,17.90
2018,05,22,09,50,18.00
2018,05,22,09,51,18.10
2018,05,22,09,52,18.30
2018,05,22,09,53,18.40
2018,05,22,09,54,18.50
2018,05,22,09,55,18.50
2018,05,22,09,56,18.50
2018,05,22,09,57,18.50
2018,05,22,09,58,18.40
2018,05,22,09,59,18.40
2018,05,22,10,00,18.50
2018,05,22,10,01,18.50
2018,05,22,10,02,18.60
2018,05,22,10,03,18.60
2018,05,22,10,04,18.60
2018,05,22,10,05,18.50
2018,05,22,10,06,18.40
2018,05,22,10,07,18.40
2018,05,22,10,08,18.50
2018,05,22,10,09,18.50
2018,05,22,10,10,18.60
2018,05,22,10,11,18.80
2018,05,22,10,12,18.80
2018,05,22,10,13,18.90
2018,05,22,10,14,18.90
2018,05,22,10,15,19.00
2018,05,22,10,16,19.00
2018,05,22,10,17,19.10
2018,05,22,10,18,19.10
2018,05,22,10,19,19.20
2018,05,22,10,20,19.30
2018,05,22,10,21,19.40
2018,05,22,10,22,19.50
2018,05,22,10,23,19.50
2018,05,22,10,24,19.50
2018,05,22,10,25,19.50
2018,05,22,10,26,19.50
2018,05,22,10,27,19.60
2018,05,22,10,28,19.60
2018,05,22,10,29,19.60
2018,05,22,10,30,19.60
2018,05,22,10,31,19.60
2018,05,22,10,32,19.70
2018,05,22,10,33,19.70
2018,05,22,10,34,19.80
2018,05,22,10,35,19.80
2018,05,22,10,36,19.80
2018,05,22,10,37,19.80
2018,05,22,10,38,19.80
2018,05,22,10,39,19.90
2018,05,22,10,40,19.90
2018,05,22,10,41,19.90
2018,05,22,10,42,19.90
2018,05,22,10,43,19.90
2018,05,22,10,44,19.90
2018,05,22,10,45,19.90
2018,05,22,10,46,20.00
2018,05,22,10,47,20.00
2018,05,22,10,48,20.10
2018,05,22,10,49,20.10
2018,05,22,10,50,20.10
2018,05,22,10,51,20.20
2018,05,22,10,52,20.20
2018,05,22,10,53,20.20
2018,05,22,10,54,20.20
2018,05,22,10,55,20.20
2018,05,22,10,56,20.20
2018,05,22,10,57,20.20
2018,05,22,10,58,20.20
2018,05,22,10,59,20.20
2018,05,22,11,00,20.30
2018,05,22,11,01,20.30
2018,05,22,11,02,20.40
2018,05,22,11,03,20.40
2018,05,22,11,04,20.50
2018,05,22,11,05,20.50
2018,05,22,11,06,20.50
2018,05,22,11,07,20.60
2018,05,22,11,08,20.60
2018,05,22,11,09,20.60
2018,05,22,11,10,20.60
2018,05,22,11,11,20.60
2018,05,22,11,12,20.60
2018,05,22,11,13,20.60
2018,05,22,11,14,20.50
2018,05,22,11,15,20.40
2018,05,22,11,16,20.40
2018,05,22,11,17,20.30
2018,05,22,11,18,20.30
2018,05,22,11,19,20.30
2018,05,22,11,20,20.30
2018,05,22,11,21,20.30
2018,05,22,11,22,20.30
2018,05,22,11,23,20.40
2018,05,22,11,24,20.40
2018,05,22,11,25,20.40
2018,05,22,11,26,20.40
2018,05,22,11,27,20.70
2018,05,22,11,28,20.80
2018,05,22,11,29,20.80
2018,05,22,11,30,20.80
2018,05,22,11,31,20.90
2018,05,22,11,32,20.90
2018,05,22,11,33,20.90
2018,05,22,11,34,20.90
2018,05,22,11,35,20.90
2018,05,22,11,36,20.80
2018,05,22,11,37,20.80
2018,05,22,11,38,20.80
2018,05,22,11,39,20.90
2018,05,22,11,40,21.00
2018,05,22,11,41,21.00
2018,05,22,11,42,21.10
2018,05,22,11,43,21.10
2018,05,22,11,44,21.00
2018,05,22,11,45,21.10
2018,05,22,11,46,21.10
2018,05,22,11,47,21.10
2018,05,22,11,48,21.10
2018,05,22,11,49,21.20
2018,05,22,11,50,21.20
2018,05,22,11,51,21.10
2018,05,22,11,52,21.00
2018,05,22,11,53,21.00
2018,05,22,11,54,21.00
2018,05,22,11,55,20.90
2018,05,22,11,56,20.90
2018,05,22,11,57,20.90
2018,05,22,11,58,20.90
2018,05,22,11,59,20.90
2018,05,22,12,00,21.00
2018,05,22,12,01,21.00
2018,05,22,12,02,21.10
2018,05,22,12,03,21.20
2018,05,22,12,04,21.30
2018,05,22,12,05,21.30
2018,05,22,12,06,21.30
2018,05,22,12,07,21.30
2018,05,22,12,08,21.30
2018,05,22,12,09,21.20
2018,05,22,12,10,21.20
2018,05,22,12,11,21.20
2018,05,22,12,12,21.20
2018,05,22,12,13,21.20
2018,05,22,12,14,21.30
2018,05,22,12,15,21.30
2018,05,22,12,16,21.30
2018,05,22,12,17,21.30
2018,05,22,12,18,21.30
2018,05,22,12,19,21.30
2018,05,22,12,20,21.30
2018,05,22,12,21,21.30
2018,05,22,12,22,21.30
2018,05,22,12,23,21.30
2018,05,22,12,24,21.40
2018,05,22,12,25,21.30
2018,05,22,12,26,21.30
2018,05,22,12,27,21.20
2018,05,22,12,28,21.20
2018,05,22,12,29,21.30
2018,05,22,12,30,21.30
2018,05,22,12,31,21.40
2018,05,22,12,32,21.50
2018,05,22,12,33,21.60
2018,05,22,12,34,21.80
2018,05,22,12,35,21.80
2018,05,22,12,36,21.90
2018,05,22,12,37,21.80
2018,05,22,12,38,21.70
2018,05,22,12,39,21.70
2018,05,22,12,40,21.70
2018,05,22,12,41,21.60
2018,05,22,12,42,21.50
2018,05,22,12,43,21.50
2018,05,22,12,44,21.50
2018,05,22,12,45,21.50
2018,05,22,12,46,21.50
2018,05,22,12,47,21.60
2018,05,22,12,48,21.60
2018,05,22,12,49,21.70
2018,05,22,12,50,21.70
2018,05,22,12,51,21.80
2018,05,22,12,52,21.90
2018,05,22,12,53,22.00
2018,05,22,12,54,22.10
2018,05,22,12,55,22.10
2018,05,22,12,56,22.10
2018,05,22,12,57,22.10
2018,05,22,12,58,22.10
2018,05,22,12,59,22.10
2018,05,22,13,00,22.20
2018,05,22,13,01,22.20
2018,05,22,13,02,22.30
2018,05,22,13,03,22.30
2018,05,22,13,04,22.20
2018,05,22,13,05,22.20
2018,05,22,13,06,22.10
2018,05,22,13,07,22.10
2018,05,22,13,08,22.10
2018,05,22,13,09,22.10
2018,05,22,13,10,22.20
2018,05,22,13,11,22.20
2018,05,22,13,12,22.10
2018,05,22,13,13,21.90
2018,05,22,13,14,21.90
2018,05,22,13,15,21.90
2018,05,22,13,16,21.90
2018,05,22,13,17,22.00
2018,05,22,13,18,22.00
2018,05,22,13,19,22.00
2018,05,22,13,20,22.00
2018,05,22,13,21,22.10
2018,05,22,13,22,22.20
2018,05,22,13,23,22.20
2018,05,22,13,24,22.30
2018,05,22,13,25,22.40
2018,05,22,13,26,22.40
2018,05,22,13,27,22.40
2018,05,22,13,28,22.50
2018,05,22,13,29,22.60
2018,05,22,13,30,22.60
2018,05,22,13,31,22.60
2018,05,22,13,32,22.70
2018,05,22,13,33,22.90
2018,05,22,13,34,22.90
2018,05,22,13,35,22.90
2018,05,22,13,36,22.90
2018,05,22,13,37,22.80
2018,05,22,13,38,22.70
2018,05,22,13,39,22.70
2018,05,22,13,40,22.70
2018,05,22,13,41,22.70
2018,05,22,13,42,22.70
2018,05,22,13,43,22.60
2018,05,22,13,44,22.40
2018,05,22,13,45,22.20
2018,05,22,13,46,22.10
2018,05,22,13,47,22.10
2018,05,22,13,48,22.10
2018,05,22,13,49,22.00
2018,05,22,13,50,21.90
2018,05,22,13,51,21.90
2018,05,22,13,52,21.80
2018,05,22,13,53,21.80
2018,05,22,13,54,21.70
2018,05,22,13,55,21.70
2018,05,22,13,56,21.60
2018,05,22,13,57,21.60
2018,05,22,13,58,21.50
2018,05,22,13,59,21.50
2018,05,22,14,00,21.50
2018,05,22,14,01,21.60
2018,05,22,14,02,21.70
2018,05,22,14,03,21.90
2018,05,22,14,04,22.10
2018,05,22,14,05,22.30
2018,05,22,14,06,22.50
2018,05,22,14,07,22.70
2018,05,22,14,08,22.80
2018,05,22,14,09,22.80
2018,05,22,14,10,22.90
2018,05,22,14,11,22.90
2018,05,22,14,12,22.90
2018,05,22,14,13,22.90
2018,05,22,14,14,22.80
2018,05,22,14,15,22.70
2018,05,22,14,16,22.70
2018,05,22,14,17,22.60
2018,05,22,14,18,22.60
2018,05,22,14,19,22.70
2018,05,22,14,20,22.80
2018,05,22,14,21,23.00
2018,05,22,14,22,23.10
2018,05,22,14,23,23.10
2018,05,22,14,24,23.20
2018,05,22,14,25,23.20
2018,05,22,14,26,23.20
2018,05,22,14,27,23.10
2018,05,22,14,28,23.10
2018,05,22,14,29,23.10
2018,05,22,14,30,23.20
2018,05,22,14,31,23.30
2018,05,22,14,32,23.40
2018,05,22,14,33,23.50
2018,05,22,14,34,23.60
2018,05,22,14,35,23.70
2018,05,22,14,36,23.80
2018,05,22,14,37,23.90
2018,05,22,14,38,24.00
2018,05,22,14,39,24.10
2018,05,22,14,40,24.20
2018,05,22,14,41,24.30
2018,05,22,14,42,24.30
2018,05,22,14,43,24.20
2018,05,22,14,44,24.10
2018,05,22,14,45,24.00
2018,05,22,14,46,23.90
2018,05,22,14,47,23.90
2018,05,22,14,48,24.00
2018,05,22,14,49,24.10
2018,05,22,14,50,24.10
2018,05,22,14,51,24.10
2018,05,22,14,52,24.10
2018,05,22,14,53,24.00
2018,05,22,14,54,23.90
2018,05,22,14,55,23.90
2018,05,22,14,56,24.00
2018,05,22,14,57,24.00
2018,05,22,14,58,24.10
2018,05,22,14,59,24.20
2018,05,22,15,00,24.30
2018,05,22,15,01,24.30
2018,05,22,15,02,24.30
2018,05,22,15,03,24.30
2018,05,22,15,04,24.20
2018,05,22,15,05,24.30
2018,05,22,15,06,24.30
2018,05,22,15,07,24.40
2018,05,22,15,08,24.40
2018,05,22,15,09,24.30
2018,05,22,15,10,24.20
2018,05,22,15,11,24.10
2018,05,22,15,12,24.00
2018,05,22,15,13,23.80
2018,05,22,15,14,23.70
2018,05,22,15,15,23.70
2018,05,22,15,16,23.70
2018,05,22,15,17,23.90
2018,05,22,15,18,24.00
2018,05,22,15,19,24.10
2018,05,22,15,20,24.20
2018,05,22,15,21,24.20
2018,05,22,15,22,24.20
2018,05,22,15,23,24.10
2018,05,22,15,24,24.10
2018,05,22,15,25,24.10
2018,05,22,15,26,24.10
2018,05,22,15,27,24.00
2018,05,22,15,28,23.90
2018,05,22,15,29,23.80
2018,05,22,15,30,23.80
2018,05,22,15,31,23.80
2018,05,22,15,32,23.80
2018,05,22,15,33,23.90
2018,05,22,15,34,23.90
2018,05,22,15,35,23.90
2018,05,22,15,36,23.90
2018,05,22,15,37,23.80
2018,05,22,15,38,23.80
2018,05,22,15,39,23.80
2018,05,22,15,40,23.80
2018,05,22,15,41,23.70
2018,05,22,15,42,23.70
2018,05,22,15,43,23.70
2018,05,22,15,44,23.80
2018,05,22,15,45,23.90
2018,05,22,15,46,23.90
2018,05,22,15,47,24.00
2018,05,22,15,48,24.00
2018,05,22,15,49,24.00
2018,05,22,15,50,24.10
2018,05,22,15,51,24.10
2018,05,22,15,52,24.10
2018,05,22,15,53,24.10
2018,05,22,15,54,24.00
2018,05,22,15,55,24.00
2018,05,22,15,56,24.00
2018,05,22,15,57,23.90
2018,05,22,15,58,23.80
2018,05,22,15,59,23.70
2018,05,22,16,00,23.60
2018,05,22,16,01,23.70
2018,05,22,16,02,23.80
2018,05,22,16,03,23.80
2018,05,22,16,04,23.90
2018,05,22,16,05,24.10
2018,05,22,16,06,24.20
2018,05,22,16,07,24.10
2018,05,22,16,08,24.00
2018,05,22,16,09,24.00
2018,05,22,16,10,24.00
2018,05,22,16,11,24.10
2018,05,22,16,12,24.20
2018,05,22,16,13,24.30
2018,05,22,16,14,24.40
2018,05,22,16,15,24.60
2018,05,22,16,16,24.70
2018,05,22,16,17,24.80
2018,05,22,16,18,24.90
2018,05,22,16,19,25.00
2018,05,22,16,20,25.00
2018,05,22,16,21,25.00
2018,05,22,16,22,24.90
2018,05,22,16,23,24.80
2018,05,22,16,24,24.70
2018,05,22,16,25,24.60
2018,05,22,16,26,24.60
2018,05,22,16,27,24.60
2018,05,22,16,28,24.60
2018,05,22,16,29,24.50
2018,05,22,16,30,24.40
2018,05,22,16,31,24.40
2018,05,22,16,32,24.40
2018,05,22,16,33,24.40
2018,05,22,16,34,24.30
2018,05,22,16,35,24.30
2018,05,22,16,36,24.30
2018,05,22,16,37,24.30
2018,05,22,16,38,24.20
2018,05,22,16,39,24.20
2018,05,22,16,40,24.20
2018,05,22,16,41,24.10
2018,05,22,16,42,24.00
2018,05,22,16,43,24.00
2018,05,22,16,44,24.00
2018,05,22,16,45,24.10
2018,05,22,16,46,24.10
2018,05,22,16,47,24.00
2018,05,22,16,48,24.00
2018,05,22,16,49,23.90
2018,05,22,16,50,23.90
2018,05,22,16,51,23.90
2018,05,22,16,52,23.80
2018,05,22,16,53,23.80
2018,05,22,16,54,23.80
2018,05,22,16,55,23.80
2018,05,22,16,56,23.90
2018,05,22,16,57,23.90
2018,05,22,16,58,23.90
2018,05,22,16,59,23.90
2018,05,22,17,00,23.80
2018,05,22,17,01,23.80
2018,05,22,17,02,23.70
2018,05,22,17,03,23.70
2018,05,22,17,04,23.60
2018,05,22,17,05,23.60
2018,05,22,17,06,23.60
2018,05,22,17,07,23.60
2018,05,22,17,08,23.50
2018,05,22,17,09,23.40
2018,05,22,17,10,23.30
2018,05,22,17,11,23.20
2018,05,22,17,12,23.00
2018,05,22,17,13,22.90
2018,05,22,17,14,22.80
2018,05,22,17,15,22.80
2018,05,22,17,16,22.80
2018,05,22,17,17,22.70
2018,05,22,17,18,22.60
2018,05,22,17,19,22.50